Preview of NWS' New Version of Forecast
This preview is not operational and should not be used for support decisions.

Regional Weather Roundup (RWR)

Issued by National Weather Service (NWS)

                            
000
ASUS45 KBOU 211010
RWRCO 

WEATHER ROUNDUP FOR COLORADO
NATIONAL WEATHER SERVICE DENVER/BOULDER CO
300 AM MST THU FEB 21 2019

NOTE: "FAIR" INDICATES FEW OR NO CLOUDS BELOW 12000 FEET WITH NO
SIGNIFICANT WEATHER AND/OR OBSTRUCTIONS TO VISIBILITY.

COZ001>005-013-030-031-211100-
...NORTHWEST COLORADO...
  
CITY           SKY/WX    TMP DP  RH WIND       PRES   REMARKS
CRAIG          CLOUDY    16   9  74 NE9       29.65F WCI   4          
HAYDEN         MOCLDY    12   5  73 E10       29.65F WCI  -1          
MEEKER         CLOUDY    17  10  74 CALM      29.61F                  
RANGELY        CLOUDY    20  15  81 E7        29.65F WCI  11          
RABBIT EARS PA PTSUNNY  N/A N/A N/A S5        29.51S                  
STEAMBOAT SPGS CLOUDY     6   3  86 CALM      29.64S                  
WALDEN         CLOUDY     1  -6  71 CALM      29.62S                  
$$

COZ006>008-011-211100-
...WEST CENTRAL VALLEYS...
  
CITY           SKY/WX    TMP DP  RH WIND       PRES   REMARKS
GRAND JUNCTION MOCLDY    26  22  84 E5        29.65F WCI  20          
MONTROSE       CLOUDY    23  18  81 CALM      29.65F                  
EAGLE          CLOUDY    12   5  73 SE5       29.69F WCI   4          
RIFLE          LGT SNOW  21  17  84 CALM      29.66F FOG              
DELTA          LGT SNOW  27  24  89 E6        29.66F WCI  20          
NUCLA          MIX PCPN  23  21  93 CALM      29.65S                  
$$

COZ017>023-064>068-211100-
...SOUTHWEST COLORADO...
  
CITY           SKY/WX    TMP DP  RH WIND       PRES   REMARKS
DURANGO        LGT SNOW  18  17  96 E8        29.66F FOG     WCI   8  
CORTEZ         LGT SNOW  23  19  85 CALM      29.65F FOG              
PAGOSA SPRINGS LGT SNOW  17  17  99 NE3       29.67F                  
TELLURIDE      LGT SNOW  16  12  86 CALM      29.56S                  
WOLF CREEK PAS CLOUDY     3   1  92 S21G32    29.56S WCI -18          
$$

COZ009-010-012-014-032>034-037-058>063-211100-
...CENTRAL COLORADO...
  
CITY           SKY/WX    TMP DP  RH WIND       PRES   REMARKS
ASPEN          CLOUDY     9   2  73 CALM      29.57F                  
BUENA VISTA    CLOUDY    10   3  74 CALM      29.65F                  
COPPER MTN     CLOUDY     7  -2  66 S14       29.48F WCI -10          
BERTHOUD PASS  FAIR       0 -13  55 SE12G20   29.48F WCI -18          
COTTONWOOD PAS CLOUDY     9   5  85 CALM      29.58F FOG              
GUNNISON       FAIR       7   0  73 NE8       29.64F WCI  -6          
GRANBY         FAIR      -5 -10  77 SE3       29.65R                  
KREMMLING      CLOUDY     0  -4  85 CALM      29.68S                  
LEADVILLE      CLOUDY     0  -4  83 E3        29.55F FOG              
MONARCH PASS   MOCLDY     3  -2  78 MISG      29.61S                  
SALIDA         MOCLDY    18   8  66 SW7       29.73S WCI   8          
SUNLIGHT       LGT SNOW   5   1  85 SE6       29.55S WCI  -6          
WILKERSON PASS CLOUDY     3   0  85 S8        29.56F WCI -10          
$$

COZ069>075-211100-
...SAN LUIS VALLEY/SANGRE DE CRISTO MOUNTAINS...
  
CITY           SKY/WX    TMP DP  RH WIND       PRES   REMARKS
ALAMOSA        CLOUDY    11   5  77 NW3       29.66F                  
DEL NORTE      CLOUDY    10   7  85 W3        29.66F                  
LA VETA PASS   NOT AVBL                                               
SAGUACHE       CLOUDY     9   1  72 CALM      29.67F                  
$$

COZ035-036-038>040-211100-
...NORTHERN COLORADO FRONT RANGE...
  
CITY           SKY/WX    TMP DP  RH WIND       PRES   REMARKS
DENVER INTL AP FAIR      16  10  77 W9        29.71R WCI   4          
AURORA         PTCLDY    15   6  69 NW5       29.71R WCI   7          
FRONT RANGE AP NOT AVBL                                               
ERIE MUNI ARPT FAIR      15   6  66 CALM      29.80R                  
BOULDER MUN AP FAIR      18   3  53 CALM      29.73S                  
CENTENNIAL     FAIR      17   6  62 W6        29.70R WCI   9          
BROOMFIELD     FAIR      18   3  53 N10       29.72S WCI   6          
FORT COLLINS   FAIR      12   4  70 N9        29.76R WCI   0          
LONGMONT       FAIR      19   4  51 N5        29.77R WCI  12          
$$

COZ041-046-047-076>085-087-088-211100-
...PIKES PEAK/PALMER DIVIDE AND SOUTHERN FOOTHILLS...
  
CITY           SKY/WX    TMP DP  RH WIND       PRES   REMARKS
COLO. SPRINGS  MOCLDY    13   7  77 NE7       29.68F WCI   3          
A. F. ACADEMY  FAIR       5   0  80 N8        29.65F WCI  -8          
SCHRIEVER AFB  NOT AVBL                                               
CHEYENNE MTN   MOCLDY    16   6  66 NW3       29.59F                  
ELLICOTT         N/A    N/A N/A N/A SE5         N/A                   
FALCON         FAIR      13   5  72 CALM      29.66F                  
FORT CARSON    FAIR      14   7  74 N12       29.67F WCI   0          
LIMON          FAIR      11   6  81 SE3       29.72F                  
MONUMENT HILL  FAIR      10   3  72 SW8       29.66F WCI  -1          
CANON CITY     NOT AVBL                                               
WALSENBURG     NOT AVBL                                               
TRINIDAD       FAIR      13   8  81 NW9       29.68F WCI   1          
$$

COZ042>045-048>051-090-091-211100-
...NORTHEAST COLORADO...
  
CITY           SKY/WX    TMP DP  RH WIND       PRES   REMARKS
GREELEY ARPT   FAIR      13   4  67 N9        29.77R WCI   1          
AKRON          FAIR      17   6  62 E14       29.77F WCI   3          
BURLINGTON     FAIR      19  11  70 SE14      29.80S WCI   6          
WRAY           FAIR      10   5  79 CALM      29.85S                  
YUMA           FAIR      14   5  67 E5        29.82S WCI   6          
STERLING       FAIR      12   3  67 NE5       29.80F WCI   4          
HOLYOKE        FAIR       5   0  78 CALM      29.85S                  
FORT MORGAN      N/A     15   4  63 E13       29.77S WCI   0          
$$

COZ086-089-092>099-211100-
...SOUTHEAST COLORADO...
  
CITY           SKY/WX    TMP DP  RH WIND       PRES   REMARKS
PUEBLO         FAIR      16  10  77 CALM      29.72F                  
LA JUNTA       FAIR      19  14  81 SE6       29.74S WCI  11          
LAMAR          FAIR      16  12  84 E8        29.75F WCI   5          
SPRINGFIELD      N/A     12   9  87 SE10      29.73S WCI  -1          
$$